Regional Weather Roundup
Issued by NWS Grand Forks, ND

Home | Current Version | Previous Version | Graphics & Text | Print | Product List | Glossary On
Versions: 1 2 3 4 5 6 7 8 9 10 11 12 13 14 15 16 17 18 19 20 21 22 23 24 25 26 27 28 29 30 31 32 33 34 35 36 37 38 39 40 41 42 43 44 45 46 47 48 49 50
000
ASUS43 KFGF 242310
RWRFGF
PRAIRIE TO PINES  WEATHER ROUNDUP
NATIONAL WEATHER SERVICE EASTERN NORTH DAKOTA/GRAND FORKS ND
500 PM CST SAT JAN 24 2015

 **SATELLITE DATA USED TO AUGMENT SKY COVER AT AUTOMATED STATIONS**
 *****  WEATHER ACROSS EASTERN NORTH DAKOTA  *****

CITY           SKY/WX    TMP DP  RH WIND       PRES   REMARKS
GRAND FORKS    CLOUDY    28  25  86 N15       29.68R WCI  17
GRAND FRKS AFB CLOUDY    26  23  88 N15       29.68R WCI  14
GRAND FRKS NWS   N/A     28 N/A N/A N13         N/A  WCI  18
DEVILS LAKE    CLOUDY    25  21  86 NE9       29.68R WCI  15
FARGO          CLOUDY    34  30  85 N8        29.61R
WAHPETON ARPT  CLOUDY    32  30  93 N5        29.59S
$$

 ***** WEATHER ACROSS CENTRAL AND WESTERN NORTH DAKOTA  *****

CITY           SKY/WX    TMP DP  RH WIND       PRES   REMARKS
BISMARCK       LGT RAIN  35  32  88 N8        29.67R FOG
MINOT          LGT SNOW  32  29  88 W5        29.69R FOG
JAMESTOWN      LGT SNOW  32  30  92 NE10      29.61R VSB 1   WCI  24
MINOT AFB      LGT SNOW  31  31 100 NW3       29.70R FOG
GARRISON         N/A     33  32  96 NW8       29.69R
WILLISTON      CLOUDY    39  34  82 NW16      29.78R
DICKINSON      LGT RAIN  39  35  86 NW18      29.73R
HETTINGER      LGT RAIN  40  36  86 NW30G43   29.74R
$$

 *****  OTHER AIRPORT OBSERVATIONS IN OUR AREA  *****

CITY           SKY/WX    TMP DP  RH WIND       PRES   REMARKS
WALHALLA         N/A     19  19 100 N15       29.76R WCI   5
GRAFTON AIRPOR NOT AVBL
VALLEY CITY AR CLOUDY    32  32 100 NE14      29.62R FOG     WCI  22
CANDO          MIX PCPN  23  19  86 NE13      29.71R WCI  11
CAVALIER APRT  MOCLDY    19  18  93 N16       29.74R WCI   5
GWINNER        CLOUDY    34  34 100 N7        29.60R
SHEYENNE NWR     N/A     33  30  88 NE10      29.95  WCI  25
ROLLA          LGT SNOW  19  19 100 NE12      29.71R WCI   7
 ***** THE ABOVE OBSERVATIONS ARE NON NWS ARE NOT QUALITY
       CONTROLLED AND MAY MIS-REPORT RAIN FOR SNOW...
$$

  *****  WEATHER ACROSS NORTHERN MINNESOTA  *****

CITY           SKY/WX    TMP DP  RH WIND       PRES   REMARKS
FLAG ISLAND    CLEAR     16   7  67 NE12G18   29.73S WCI   3
WARROAD        PTCLDY    18  10  73 NE13      29.72R WCI   4
ROSEAU         PTCLDY    21  12  68 MISG      29.72R
HALLOCK        CLOUDY    27  21  80 N15       29.70R WCI  15
THF RVR FALLS  MOCLDY    30  25  80 NE12      29.65F WCI  21
BAUDETTE       PTCLDY    21  10  62 NE10      29.69R WCI  10
WASKISH        PTCLDY    27  19  74 NE7       29.66S WCI  19
CROOKSTON      CLOUDY    34  28  80 NE7       29.66R
STEPHEN NDAWN    N/A     30  27  86 E12         N/A  WCI  21
GREENBUSH NDAW   N/A     25  18  74 E10         N/A  WCI  15
$$
  *****  WEATHER ACROSS CENTRAL AND WEST MINNESOTA  *****

CITY           SKY/WX    TMP DP  RH WIND       PRES   REMARKS
FOSSTON        CLOUDY    30  28  93 NE10      29.63R WCI  21
BEMIDJI        CLOUDY    33  28  83 NE6       29.61S
PARK RAPIDS    CLOUDY    35  30  82 NE5       29.59R
ELBOW LAKE     CLOUDY    32  30  93 NE3       29.57S
WADENA         CLOUDY    30  30 100 NE6       29.58S FOG     WCI  24
DETROIT LAKES  CLOUDY    32  32 100 NE5       29.61R FOG
MOORHEAD       CLOUDY    34  34 100 N6        29.62R
FERGUS FALLS   CLOUDY    34  30  86 N3        29.61R
MORRIS MN      CLOUDY    34  30  86 CALM      29.57S
STAPLES        CLOUDY    30  30 100 CALM      29.59S
$$
  *****  WEATHER ELSEWHERE ACROSS MINNESOTA  *****

CITY           SKY/WX    TMP DP  RH WIND       PRES   REMARKS
DULUTH         CLOUDY    30  26  85 E20       29.62R WCI  17
INTRNTL FALLS  CLEAR     19   8  62 NE7       29.72R WCI  10
ELY            MOCLDY    23  16  74 NE6       29.68R WCI  16
CLOQUET        CLOUDY    36  28  75 NE5       29.60S
WHEATON        CLOUDY    32  28  86 N3        29.61R
BRAINERD       CLOUDY    33  29  85 N5        29.59R
HIBBING        CLOUDY    32  24  72 NE9       29.63R WCI  24
ALEXANDRIA     CLOUDY    34  30  85 NW3       29.57S
SAINT CLOUD    CLOUDY    37  31  78 NE3       29.57S
MINNEAPOLIS    CLOUDY    39  30  70 SW3       29.59R
$$

  *****  WEATHER ACROSS SOUTH DAKOTA  *****

CITY           SKY/WX    TMP DP  RH WIND       PRES   REMARKS
SIOUX FALLS    LGT RAIN  41  34  76 CALM      29.59S
BROOKINGS      NOT AVBL
WATERTOWN      MIX PCPN  35  33  92 W5        29.55F
HURON          CLOUDY    42  37  82 CALM      29.56F
SISSETON         N/A     34  32  92 N7        29.57R
ABERDEEN       CLOUDY    37  36  96 NE3       29.57S
MITCHELL       CLOUDY    42  36  79 CALM      29.58F
PIERRE         CLOUDY    49  35  58 NW36G48   29.61R
MOBRIDGE       CLOUDY    41  36  82 NW24G33   29.59R
RAPID CITY     PTCLDY    45  34  65 NW35G44   29.81R
$$

  *****  SOME WEATHER IN NEARBY STATES *****

CITY           SKY/WX    TMP DP  RH WIND       PRES   REMARKS
GLASGOW MT     CLEAR     44  33  65 W18G26    29.93R
GREAT FALLS MT MOCLDY    47  32  56 W14       30.11S
CHEYENNE WY    CLOUDY    43  22  43 NW20G28   30.02R
SCOTTSBLUFF NE LGT RAIN  42  34  73 NW24G37   29.97R
OMAHA NE       CLOUDY    52  30  43 W7        29.67F
DES MOINES IA  CLOUDY    50  29  44 W8        29.65S
DAVENPORT IA   PTCLDY    41  33  73 SW9       29.67S
CHICAGO IL     CLOUDY    34  30  85 W9        29.66R
EAU CLAIRE WI  CLOUDY    36  29  75 CALM      29.59S
LA CROSSE WI   MOCLDY    37  30  75 CALM      29.60F
$$

  *****  SOME NATIONAL WEATHER *****

CITY           SKY/WX    TMP DP  RH WIND       PRES   REMARKS
LA GUARDIA NY  CLOUDY    38  32  79 NW10      29.34R
RALEIGH NC     CLEAR     45  28  51 W6        29.70R
ATLANTA GA     PTCLDY    46  24  42 W12       29.92R
NEW ORLEANS LA PTCLDY    55  32  41 W8        30.09S
OKLAHOMA CITY  PTCLDY    60  31  33 SW14      29.95F
ALBUQUERQUE NM MOSUNNY   50  19  29 VRB3      30.21F
SALT LAKE CITY CLOUDY    39  25  57 NW7       30.45S
LOS ANGELES CA MOSUNNY   75  30  19 SW7       29.99S
BOISE ID       CLOUDY    39  31  72 CALM      30.45R
SEATTLE WA     CLOUDY    58  55  90 S7        30.26S
$$

*** WEATHER ACROSS MANITOBA...SASKATCHEWAN AND ONTARIO ***
                ***ONTARIO***

CITY           SKY/WX    TMP DP  RH WIND       PRES   REMARKS
GERALDTON      CLEAR      0  -9  65 N5        29.80R WCI -10
THUNDER BAY    CLEAR     14   1  57 NE7       29.81R WCI   4
SIOUX LOOKOUT  PTCLDY     3  -6  66 VRB2      29.80R
TORONTO        CLOUDY    30  27  86 W8        29.48R WCI  23
BIG TROUT LK   CLEAR     -8 -11  84 NW6       29.97R WCI -21
PICKLE LAKE    PTCLDY    -2  -9  71 N6        29.85R WCI -14
DRYDEN         CLEAR      5  -4  66 NE7       29.80R WCI  -7
KENORA         PTCLDY    10   1  67 E10       29.75R WCI  -3
$$
                *** MANITOBA***

CITY           SKY/WX    TMP DP  RH WIND       PRES   REMARKS
BRANDON        FLURRIES  16  10  79 E14       29.77R WCI   1
DAUPHIN        FLURRIES  10   7  85 NE9       29.84R WCI  -2
ISLAND LAKE    PTCLDY    -6 -11  77 CALM      29.99R
PILOT MOUND      N/A     16  14  93 NE12        N/A  WCI   3
THE PAS        FLURRIES   1  -4  78 E8        29.90R WCI -12
THOMPSON       MOCLDY    -8 -15  71 NE2       30.01R
WINNIPEG       CLOUDY    12   7  79 N15       29.82R WCI  -4
LYNN LAKE      FLURRIES  -6  -9  84 E8        29.92R WCI -21
CHURCHILL      PTCLDY   -22 -27  76 W9        30.11R WCI -42
GILLAM         MOCLDY   -17 -22  76 W2        30.07R
$$
                ***SASKATCHEWAN***

CITY           SKY/WX    TMP DP  RH WIND       PRES   REMARKS
ESTEVAN        CLOUDY    34  32  93 W13       29.72R WCI  25
KINDERSLEY     NOT AVBL
LLOYDMINSTER   MOCLDY    37  28  70 W17G24    29.86R
PRINCE ALBERT  CLOUDY    19  18  93 E6        29.74R WCI  11
REGINA         MOCLDY    37  32  81 NW25G35   29.75R
YORKTON        LGT SNOW  19  18  93 SE7       29.72R WCI  10
N. BATTLEFORD  MOCLDY    39  32  75 NW22G29   29.84R
LA RONGE       FLURRIES   9   3  78 NE6       29.85R WCI  -1
SASKATOON      MOCLDY    39  32  75 NW22G28   29.76R
SWIFT CURRENT  CLEAR     37  30  75 W20G25    29.88R
$$
NOTE: THESE ARE AUTOMATED STATIONS WITH LIMITED QUALITY CONTROL
      "FAIR" INDICATES FEW OR NO CLOUDS BELOW 12,000 FEET WITH NO
      SIGNIFICANT WEATHER AND/OR OBSTRUCTIONS TO VISIBILITY.
      SKY/WX - SKY CONDITION AND SIGNIFICANT WEATHER.
      TMP - AIR TEMPERATURE.    DP   - DEWPOINT TEMPERATURE.
      RH  - RELATIVE HUMIDITY.  PRES - PRESSURE.
      HX  - HEAT INDEX.         WCI  - WIND CHILL INDEX.
$



USA.gov is the U.S. government's official web portal to all federal, state and local government web resources and services.